DLH07A EDDM-LFML

Flight info

Callsign DLH07A
Flight time 1h 24m
Altitude 35000
Route TURBU7N TURBU Y107 TOBSO DCT BAKOR DCT NESTI DCT UVNIB DCT TESTO DCT ENOBA DCT ASBOP DCT BORDI DCT PIGOS DCT STP A3 RUBIT G7 LANKO
Aircraft A321/M-SDE3FGHIRWY/LB1

Departure

Time 2026-05-05 03:39
Airport Munich Airport (EDDM)

Arrival

Time 2026-05-05 05:04
Airport Marseille Provence Airport (LFML)
Time Latitude Longitude Altitude Speed Heading
2026-05-05 03:25 48.35667 11.79959 1485 ft 0 kts 263°
2026-05-05 03:29 48.35668 11.79979 1471 ft 4 kts 263°
2026-05-05 03:30 48.35671 11.80020 1475 ft 4 kts 263°
2026-05-05 03:30 48.35674 11.80052 1472 ft 4 kts 250°
2026-05-05 03:30 48.35688 11.80079 1479 ft 4 kts 193°
2026-05-05 03:30 48.35712 11.80078 1485 ft 4 kts 173°
2026-05-05 03:31 48.35721 11.80077 1485 ft 0 kts 173°
2026-05-05 03:33 48.35715 11.80078 1485 ft 2 kts 173°
2026-05-05 03:33 48.35686 11.80073 1476 ft 7 kts 191°
2026-05-05 03:33 48.35618 11.80074 1485 ft 12 kts 174°
2026-05-05 03:33 48.35524 11.80090 1482 ft 15 kts 173°
2026-05-05 03:34 48.35417 11.80109 1485 ft 16 kts 172°
2026-05-05 03:34 48.35300 11.80136 1475 ft 18 kts 173°
2026-05-05 03:34 48.35189 11.80151 1485 ft 12 kts 190°
2026-05-05 03:34 48.35157 11.80034 1478 ft 14 kts 264°
2026-05-05 03:35 48.35147 11.79895 1485 ft 12 kts 264°
2026-05-05 03:35 48.35136 11.79758 1485 ft 14 kts 263°
2026-05-05 03:35 48.35075 11.79658 1485 ft 15 kts 182°
2026-05-05 03:35 48.34963 11.79674 1478 ft 17 kts 173°
2026-05-05 03:36 48.34847 11.79695 1482 ft 13 kts 173°
2026-05-05 03:36 48.34809 11.79798 1479 ft 14 kts 85°
2026-05-05 03:36 48.34821 11.79949 1485 ft 15 kts 83°
2026-05-05 03:36 48.34830 11.80109 1486 ft 13 kts 97°
2026-05-05 03:37 48.34776 11.80229 1481 ft 15 kts 126°
2026-05-05 03:37 48.34753 11.80348 1481 ft 12 kts 106°
2026-05-05 03:37 48.34679 11.80408 1476 ft 14 kts 172°
2026-05-05 03:37 48.34578 11.80423 1476 ft 15 kts 176°
2026-05-05 03:38 48.34487 11.80430 1482 ft 5 kts 190°
2026-05-05 03:38 48.34475 11.80379 1480 ft 6 kts 261°
2026-05-05 03:38 48.34464 11.80248 1481 ft 34 kts 263°
2026-05-05 03:38 48.34406 11.79482 1478 ft 111 kts 263°
2026-05-05 03:39 48.34291 11.78011 1516 ft 167 kts 264°
2026-05-05 03:39 48.34154 11.76247 2155 ft 172 kts 263°
2026-05-05 03:39 48.34018 11.74454 2924 ft 176 kts 264°
2026-05-05 03:39 48.33836 11.72540 3252 ft 196 kts 253°
2026-05-05 03:40 48.32953 11.70890 3539 ft 217 kts 206°
2026-05-05 03:40 48.31471 11.70354 4247 ft 222 kts 184°
2026-05-05 03:40 48.29930 11.70323 5073 ft 222 kts 177°
2026-05-05 03:40 48.28436 11.70925 5826 ft 228 kts 153°
2026-05-05 03:41 48.27072 11.72358 6188 ft 252 kts 143°
2026-05-05 03:41 48.25604 11.73982 6591 ft 270 kts 145°
2026-05-05 03:41 48.24064 11.75592 7272 ft 276 kts 146°
2026-05-05 03:41 48.22467 11.77214 8034 ft 279 kts 147°
2026-05-05 03:42 48.20844 11.78845 8794 ft 283 kts 147°
2026-05-05 03:42 48.19200 11.80495 9569 ft 286 kts 147°
2026-05-05 03:42 48.17454 11.81945 10268 ft 289 kts 160°
2026-05-05 03:42 48.15501 11.82944 10618 ft 307 kts 162°
2026-05-05 03:43 48.13398 11.83983 10779 ft 330 kts 162°
2026-05-05 03:43 48.11140 11.85093 10902 ft 352 kts 162°
2026-05-05 03:43 48.08764 11.86262 11260 ft 364 kts 162°
2026-05-05 03:43 48.06347 11.87460 11860 ft 368 kts 162°
2026-05-05 03:44 48.03906 11.88674 12517 ft 371 kts 162°
2026-05-05 03:44 48.01448 11.89897 13149 ft 374 kts 162°
2026-05-05 03:44 47.98968 11.91127 13770 ft 377 kts 162°
2026-05-05 03:44 47.96466 11.92367 14337 ft 380 kts 162°
2026-05-05 03:45 47.93940 11.93614 14909 ft 384 kts 163°
2026-05-05 03:45 47.91383 11.94571 15411 ft 387 kts 172°
2026-05-05 03:45 47.88693 11.94831 15931 ft 389 kts 181°
2026-05-05 03:45 47.85973 11.94765 16467 ft 392 kts 181°
2026-05-05 03:46 47.83235 11.94706 16996 ft 395 kts 181°
2026-05-05 03:46 47.80478 11.94653 17513 ft 398 kts 181°
2026-05-05 03:46 47.77696 11.94601 18024 ft 401 kts 181°
2026-05-05 03:46 47.74888 11.94554 18487 ft 404 kts 181°
2026-05-05 03:47 47.72066 11.94507 18911 ft 407 kts 181°
2026-05-05 03:47 47.69225 11.94457 19344 ft 410 kts 181°
2026-05-05 03:47 47.66360 11.94407 19766 ft 413 kts 182°
2026-05-05 03:47 47.63481 11.94356 20203 ft 415 kts 182°
2026-05-05 03:48 47.60581 11.94310 20643 ft 418 kts 182°
2026-05-05 03:48 47.57661 11.94264 21076 ft 421 kts 182°
2026-05-05 03:48 47.54722 11.94217 21523 ft 424 kts 182°
2026-05-05 03:48 47.51767 11.94168 21968 ft 426 kts 182°
2026-05-05 03:49 47.48793 11.94114 22388 ft 429 kts 182°
2026-05-05 03:49 47.45805 11.94061 22804 ft 431 kts 182°
2026-05-05 03:49 47.42800 11.93928 23217 ft 433 kts 187°
2026-05-05 03:49 47.39808 11.93358 23605 ft 435 kts 189°
2026-05-05 03:50 47.36804 11.92750 23967 ft 436 kts 189°
2026-05-05 03:50 47.33792 11.92145 24379 ft 437 kts 189°
2026-05-05 03:50 47.30804 11.91549 24731 ft 439 kts 189°
2026-05-05 03:50 47.27767 11.90945 25079 ft 442 kts 189°
2026-05-05 03:51 47.24717 11.90338 25448 ft 444 kts 189°
2026-05-05 03:51 47.21646 11.89730 25809 ft 446 kts 189°
2026-05-05 03:51 47.18564 11.89121 26139 ft 448 kts 189°
2026-05-05 03:51 47.15471 11.88507 26477 ft 449 kts 190°
2026-05-05 03:52 47.12364 11.87888 26816 ft 451 kts 190°
2026-05-05 03:52 47.09249 11.87269 27123 ft 453 kts 190°
2026-05-05 03:52 47.06119 11.86647 27397 ft 455 kts 190°
2026-05-05 03:52 47.02974 11.86021 27660 ft 457 kts 190°
2026-05-05 03:53 46.99830 11.85325 28002 ft 456 kts 192°
2026-05-05 03:53 46.96717 11.84452 28403 ft 453 kts 194°
2026-05-05 03:53 46.93643 11.83456 28823 ft 451 kts 196°
2026-05-05 03:53 46.90597 11.82406 29192 ft 449 kts 196°
2026-05-05 03:54 46.87560 11.81352 29572 ft 448 kts 196°
2026-05-05 03:54 46.84518 11.80321 29961 ft 447 kts 196°
2026-05-05 03:54 46.81521 11.79341 30327 ft 446 kts 195°
2026-05-05 03:54 46.78487 11.78380 30664 ft 445 kts 195°
2026-05-05 03:55 46.75468 11.77440 31001 ft 443 kts 195°
2026-05-05 03:55 46.72463 11.76510 31409 ft 440 kts 195°
2026-05-05 03:55 46.69471 11.75575 31747 ft 438 kts 195°
2026-05-05 03:55 46.66494 11.74634 32072 ft 437 kts 197°
2026-05-05 03:56 46.63613 11.73306 32374 ft 433 kts 206°
2026-05-05 03:56 46.60950 11.71311 32641 ft 429 kts 215°
2026-05-05 03:56 46.58566 11.68721 32926 ft 426 kts 224°
2026-05-05 03:56 46.56515 11.65637 33241 ft 424 kts 230°
2026-05-05 03:57 46.54576 11.62413 33532 ft 423 kts 230°
2026-05-05 03:57 46.52629 11.59193 33823 ft 423 kts 230°
2026-05-05 03:57 46.50683 11.55989 34093 ft 423 kts 230°
2026-05-05 03:57 46.48734 11.52793 34353 ft 422 kts 230°
2026-05-05 03:58 46.46784 11.49602 34606 ft 422 kts 230°
2026-05-05 03:58 46.44836 11.46415 34851 ft 422 kts 230°
2026-05-05 03:58 46.42891 11.43228 35090 ft 422 kts 230°
2026-05-05 03:58 46.40945 11.40040 35346 ft 422 kts 230°
2026-05-05 03:59 46.39000 11.36853 35586 ft 422 kts 230°
2026-05-05 03:59 46.37055 11.33670 35843 ft 422 kts 229°
2026-05-05 03:59 46.35131 11.30532 35996 ft 422 kts 229°
2026-05-05 03:59 46.33174 11.27346 36037 ft 424 kts 229°
2026-05-05 04:00 46.29263 11.20991 36109 ft 423 kts 229°
2026-05-05 04:00 46.25344 11.14636 36108 ft 423 kts 229°
2026-05-05 04:01 46.21431 11.08286 36109 ft 423 kts 229°
2026-05-05 04:01 46.17510 11.01938 36090 ft 423 kts 229°
2026-05-05 04:02 46.13580 10.95623 36083 ft 423 kts 229°
2026-05-05 04:02 46.09645 10.89299 36060 ft 424 kts 229°
2026-05-05 04:03 46.05707 10.82967 36053 ft 424 kts 229°
2026-05-05 04:03 46.01748 10.76645 36033 ft 425 kts 229°
2026-05-05 04:04 45.97795 10.70336 36041 ft 424 kts 228°
2026-05-05 04:04 45.93848 10.64037 36039 ft 424 kts 228°
2026-05-05 04:05 45.89908 10.57759 36026 ft 423 kts 228°
2026-05-05 04:05 45.85962 10.51504 36015 ft 423 kts 228°
2026-05-05 04:06 45.82012 10.45258 36007 ft 423 kts 228°
2026-05-05 04:06 45.78050 10.39020 36010 ft 423 kts 228°
2026-05-05 04:07 45.74052 10.32814 36003 ft 423 kts 228°
2026-05-05 04:07 45.70054 10.26631 36004 ft 423 kts 227°
2026-05-05 04:08 45.66728 10.21490 36015 ft 423 kts 227°
2026-05-05 04:08 45.62088 10.14320 36016 ft 422 kts 227°
2026-05-05 04:09 45.58099 10.08159 36017 ft 422 kts 227°
2026-05-05 04:09 45.54754 10.03006 36016 ft 422 kts 227°
2026-05-05 04:10 45.50784 9.96927 36006 ft 421 kts 227°
2026-05-05 04:10 45.46780 9.90800 35991 ft 422 kts 227°
2026-05-05 04:11 45.42749 9.84647 35990 ft 422 kts 227°
2026-05-05 04:11 45.38766 9.78568 36055 ft 423 kts 227°
2026-05-05 04:12 45.34751 9.72454 36052 ft 423 kts 227°
2026-05-05 04:12 45.30732 9.66354 36059 ft 422 kts 227°
2026-05-05 04:13 45.26720 9.60278 36049 ft 422 kts 227°
2026-05-05 04:13 45.22707 9.54208 36028 ft 421 kts 227°
2026-05-05 04:14 45.18607 9.48269 36007 ft 421 kts 225°
2026-05-05 04:14 45.14421 9.42452 36010 ft 421 kts 225°
2026-05-05 04:15 45.10237 9.36643 36011 ft 421 kts 225°
2026-05-05 04:15 45.06092 9.30848 36010 ft 421 kts 225°
2026-05-05 04:16 45.01934 9.25004 36014 ft 421 kts 225°
2026-05-05 04:16 44.97777 9.19170 36024 ft 421 kts 225°
2026-05-05 04:17 44.93608 9.13348 36018 ft 421 kts 225°
2026-05-05 04:17 44.89469 9.07573 36021 ft 421 kts 225°
2026-05-05 04:18 44.85296 9.01779 36017 ft 421 kts 225°
2026-05-05 04:18 44.81118 8.96009 36008 ft 420 kts 225°
2026-05-05 04:19 44.76942 8.90242 36003 ft 420 kts 225°
2026-05-05 04:19 44.72769 8.84474 36003 ft 420 kts 225°
2026-05-05 04:20 44.68588 8.78723 36000 ft 421 kts 224°
2026-05-05 04:20 44.64396 8.72988 35986 ft 421 kts 224°
2026-05-05 04:21 44.60205 8.67245 35998 ft 421 kts 224°
2026-05-05 04:21 44.55888 8.61676 35999 ft 422 kts 221°
2026-05-05 04:22 44.51439 8.56377 35998 ft 422 kts 220°
2026-05-05 04:22 44.46950 8.51070 35997 ft 422 kts 221°
2026-05-05 04:23 44.42485 8.45712 36002 ft 422 kts 221°
2026-05-05 04:23 44.38042 8.40339 36011 ft 422 kts 221°
2026-05-05 04:24 44.33588 8.34977 36008 ft 423 kts 221°
2026-05-05 04:25 44.27638 8.25941 36012 ft 424 kts 234°
2026-05-05 04:25 44.24289 8.19164 36012 ft 424 kts 234°
2026-05-05 04:26 44.20933 8.12397 36007 ft 424 kts 234°
2026-05-05 04:26 44.17573 8.05655 36001 ft 424 kts 234°
2026-05-05 04:27 44.14199 7.98915 35999 ft 424 kts 234°
2026-05-05 04:27 44.10860 7.92255 36016 ft 422 kts 233°
2026-05-05 04:28 44.07510 7.85564 36011 ft 421 kts 233°
2026-05-05 04:28 44.04162 7.78894 35995 ft 419 kts 233°
2026-05-05 04:29 44.00129 7.73106 35990 ft 418 kts 216°
2026-05-05 04:29 43.95342 7.68541 35961 ft 418 kts 215°
2026-05-05 04:30 43.90549 7.63976 35975 ft 418 kts 215°
2026-05-05 04:30 43.85755 7.59408 35964 ft 417 kts 215°
2026-05-05 04:31 43.80966 7.54848 35979 ft 418 kts 215°
2026-05-05 04:31 43.76160 7.50286 35968 ft 419 kts 215°
2026-05-05 04:32 43.71356 7.45743 35959 ft 419 kts 215°
2026-05-05 04:32 43.66534 7.41189 35968 ft 419 kts 215°
2026-05-05 04:33 43.61990 7.36270 35966 ft 418 kts 227°
2026-05-05 04:33 43.58480 7.29882 35924 ft 418 kts 234°
2026-05-05 04:33 43.56805 7.26639 35679 ft 409 kts 234°
2026-05-05 04:34 43.55170 7.23484 35421 ft 400 kts 234°
2026-05-05 04:34 43.53565 7.20396 35172 ft 393 kts 234°
2026-05-05 04:34 43.51980 7.17350 34928 ft 390 kts 234°
2026-05-05 04:34 43.50400 7.14320 34684 ft 388 kts 234°
2026-05-05 04:35 43.48827 7.11309 34449 ft 386 kts 233°
2026-05-05 04:35 43.47263 7.08309 34212 ft 385 kts 233°
2026-05-05 04:35 43.45703 7.05320 33974 ft 383 kts 233°
2026-05-05 04:35 43.44150 7.02348 33708 ft 382 kts 233°
2026-05-05 04:36 43.42601 6.99388 33433 ft 380 kts 233°
2026-05-05 04:36 43.41059 6.96441 33144 ft 378 kts 234°
2026-05-05 04:36 43.39527 6.93514 32874 ft 376 kts 234°
2026-05-05 04:36 43.38001 6.90608 32604 ft 374 kts 234°
2026-05-05 04:37 43.36473 6.87700 31938 ft 376 kts 234°
2026-05-05 04:37 43.34967 6.84836 31479 ft 372 kts 234°
2026-05-05 04:37 43.33453 6.81960 30714 ft 375 kts 234°
2026-05-05 04:37 43.31892 6.79000 29639 ft 388 kts 234°
2026-05-05 04:38 43.30278 6.75943 28735 ft 401 kts 234°
2026-05-05 04:38 43.28634 6.72828 27827 ft 403 kts 233°
2026-05-05 04:38 43.26967 6.69674 26912 ft 421 kts 233°
2026-05-05 04:38 43.25211 6.66357 25843 ft 436 kts 233°
2026-05-05 04:39 43.23521 6.62885 24716 ft 440 kts 241°
2026-05-05 04:39 43.22409 6.58973 23648 ft 443 kts 254°
2026-05-05 04:39 43.22030 6.54777 22544 ft 446 kts 267°
2026-05-05 04:39 43.22102 6.50547 21700 ft 440 kts 268°
2026-05-05 04:40 43.22168 6.46373 20753 ft 436 kts 268°
2026-05-05 04:40 43.22226 6.42223 19831 ft 432 kts 268°
2026-05-05 04:40 43.22279 6.38127 18963 ft 427 kts 267°
2026-05-05 04:40 43.22334 6.34079 18098 ft 423 kts 267°
2026-05-05 04:41 43.22393 6.30073 17192 ft 417 kts 268°
2026-05-05 04:41 43.22452 6.26136 16345 ft 410 kts 268°
2026-05-05 04:41 43.22507 6.22264 15529 ft 403 kts 268°
2026-05-05 04:41 43.22554 6.18491 14750 ft 398 kts 268°
2026-05-05 04:42 43.22601 6.14678 13983 ft 393 kts 268°
2026-05-05 04:42 43.22647 6.10960 13204 ft 387 kts 268°
2026-05-05 04:42 43.22683 6.07353 12591 ft 378 kts 268°
2026-05-05 04:42 43.22712 6.03784 11915 ft 370 kts 268°
2026-05-05 04:43 43.22837 6.00301 11328 ft 362 kts 275°
2026-05-05 04:43 43.23175 5.96930 11114 ft 360 kts 275°
2026-05-05 04:43 43.23517 5.93435 10925 ft 374 kts 275°
2026-05-05 04:43 43.23856 5.89996 10677 ft 350 kts 275°
2026-05-05 04:44 43.24168 5.86867 10438 ft 313 kts 275°
2026-05-05 04:44 43.24449 5.84052 10196 ft 285 kts 275°
2026-05-05 04:44 43.24707 5.81396 10045 ft 278 kts 274°
2026-05-05 04:44 43.24957 5.78780 10011 ft 276 kts 274°
2026-05-05 04:45 43.25206 5.76167 10011 ft 276 kts 274°
2026-05-05 04:45 43.25456 5.73552 10016 ft 276 kts 274°
2026-05-05 04:45 43.25706 5.70943 9908 ft 275 kts 274°
2026-05-05 04:45 43.25955 5.68344 9786 ft 275 kts 275°
2026-05-05 04:46 43.26204 5.65739 9652 ft 275 kts 275°
2026-05-05 04:46 43.26454 5.63141 9514 ft 274 kts 275°
2026-05-05 04:46 43.26702 5.60548 9378 ft 273 kts 274°
2026-05-05 04:46 43.26954 5.57965 9240 ft 274 kts 276°
2026-05-05 04:47 43.27241 5.55423 9117 ft 273 kts 277°
2026-05-05 04:47 43.27546 5.52864 8987 ft 271 kts 276°
2026-05-05 04:47 43.27853 5.50312 8855 ft 271 kts 277°
2026-05-05 04:47 43.28159 5.47759 8724 ft 271 kts 277°
2026-05-05 04:48 43.28465 5.45207 8587 ft 270 kts 276°
2026-05-05 04:48 43.28763 5.42675 8462 ft 267 kts 276°
2026-05-05 04:48 43.29053 5.40148 8333 ft 270 kts 276°
2026-05-05 04:48 43.29347 5.37612 8205 ft 268 kts 276°
2026-05-05 04:49 43.29638 5.35093 8075 ft 267 kts 276°
2026-05-05 04:49 43.29931 5.32565 7951 ft 267 kts 276°
2026-05-05 04:49 43.30219 5.30057 7828 ft 267 kts 276°
2026-05-05 04:49 43.30505 5.27538 7703 ft 266 kts 276°
2026-05-05 04:50 43.30782 5.25024 7581 ft 267 kts 276°
2026-05-05 04:50 43.31067 5.22509 7455 ft 266 kts 276°
2026-05-05 04:50 43.31350 5.20008 7346 ft 265 kts 276°
2026-05-05 04:50 43.31634 5.17499 7222 ft 266 kts 276°
2026-05-05 04:51 43.31918 5.14995 7100 ft 265 kts 276°
2026-05-05 04:51 43.32197 5.12529 6998 ft 264 kts 276°
2026-05-05 04:51 43.32479 5.10042 7002 ft 264 kts 276°
2026-05-05 04:51 43.32759 5.07543 7004 ft 265 kts 276°
2026-05-05 04:52 43.33265 5.05115 7002 ft 266 kts 295°
2026-05-05 04:52 43.34420 5.03213 7000 ft 257 kts 319°
2026-05-05 04:52 43.35998 5.02144 7000 ft 256 kts 342°
2026-05-05 04:52 43.37794 5.01970 7006 ft 261 kts 359°
2026-05-05 04:53 43.39612 5.02062 7006 ft 261 kts 359°
2026-05-05 04:53 43.41400 5.02062 7005 ft 258 kts 350°
2026-05-05 04:53 43.43134 5.01520 7009 ft 249 kts 335°
2026-05-05 04:53 43.44664 5.00477 6694 ft 250 kts 321°
2026-05-05 04:54 43.45967 4.98971 6482 ft 240 kts 311°
2026-05-05 04:54 43.47149 4.97383 6110 ft 235 kts 311°
2026-05-05 04:54 43.48319 4.95824 5526 ft 232 kts 311°
2026-05-05 04:54 43.49496 4.94258 5122 ft 237 kts 313°
2026-05-05 04:55 43.50646 4.92736 5011 ft 228 kts 313°
2026-05-05 04:55 43.51799 4.91204 5011 ft 230 kts 313°
2026-05-05 04:55 43.52945 4.89674 5011 ft 228 kts 313°
2026-05-05 04:55 43.54087 4.88146 5008 ft 230 kts 313°
2026-05-05 04:56 43.55230 4.86617 5006 ft 228 kts 313°
2026-05-05 04:56 43.56492 4.85311 5017 ft 231 kts 334°
2026-05-05 04:56 43.58068 4.85045 5002 ft 229 kts
2026-05-05 04:56 43.59494 4.85967 4998 ft 230 kts 41°
2026-05-05 04:57 43.60430 4.87737 5006 ft 230 kts 60°
2026-05-05 04:57 43.61219 4.89631 4946 ft 231 kts 60°
2026-05-05 04:57 43.61675 4.90968 4803 ft 225 kts 73°
2026-05-05 04:57 43.61864 4.93752 4575 ft 221 kts 101°
2026-05-05 04:58 43.61611 4.95124 4443 ft 217 kts 114°
2026-05-05 04:58 43.60864 4.96882 4270 ft 209 kts 134°
2026-05-05 04:58 43.59868 4.98329 4165 ft 204 kts 137°
2026-05-05 04:58 43.58927 4.99684 4010 ft 190 kts 138°
2026-05-05 04:59 43.58023 5.00982 3785 ft 185 kts 138°
2026-05-05 04:59 43.57136 5.02252 3555 ft 183 kts 137°
2026-05-05 04:59 43.56270 5.03495 3314 ft 182 kts 137°
2026-05-05 04:59 43.55395 5.04749 3077 ft 180 kts 137°
2026-05-05 05:00 43.54527 5.05994 2831 ft 178 kts 137°
2026-05-05 05:00 43.53693 5.07189 2612 ft 166 kts 137°
2026-05-05 05:00 43.52913 5.08307 2386 ft 158 kts 137°
2026-05-05 05:00 43.52159 5.09383 2174 ft 154 kts 137°
2026-05-05 05:01 43.51417 5.10443 1963 ft 153 kts 136°
2026-05-05 05:01 43.50678 5.11500 1760 ft 152 kts 137°
2026-05-05 05:01 43.49967 5.12518 1558 ft 142 kts 136°
2026-05-05 05:01 43.49297 5.13476 1375 ft 137 kts 136°
2026-05-05 05:02 43.48639 5.14413 1189 ft 135 kts 136°
2026-05-05 05:02 43.47988 5.15343 1008 ft 135 kts 136°
2026-05-05 05:02 43.47332 5.16270 811 ft 137 kts 138°
2026-05-05 05:02 43.46672 5.17210 614 ft 137 kts 134°
2026-05-05 05:03 43.46018 5.18163 421 ft 137 kts 135°
2026-05-05 05:03 43.45340 5.19097 239 ft 137 kts 131°
2026-05-05 05:03 43.44696 5.20047 65 ft 135 kts 134°
2026-05-05 05:03 43.44094 5.20904 31 ft 97 kts 134°
2026-05-05 05:04 43.43805 5.21312 42 ft 40 kts 134°
2026-05-05 05:04 43.43634 5.21556 46 ft 34 kts 134°
2026-05-05 05:04 43.43475 5.21783 49 ft 31 kts 134°
2026-05-05 05:04 43.43349 5.21974 53 ft 22 kts 116°
2026-05-05 05:05 43.43337 5.22172 55 ft 18 kts 87°
2026-05-05 05:05 43.43370 5.22271 51 ft 7 kts 33°
2026-05-05 05:05 43.43427 5.22278 54 ft 10 kts 345°
2026-05-05 05:05 43.43499 5.22220 52 ft 14 kts 328°
2026-05-05 05:06 43.43595 5.22144 49 ft 18 kts 331°
2026-05-05 05:06 43.43681 5.22104 48 ft 9 kts 28°
2026-05-05 05:06 43.43712 5.22166 47 ft 10 kts 52°
2026-05-05 05:06 43.43735 5.22257 48 ft 11 kts 103°
2026-05-05 05:07 43.43739 5.22365 49 ft 12 kts 74°
2026-05-05 05:07 43.43765 5.22485 50 ft 14 kts 66°
2026-05-05 05:07 43.43824 5.22521 48 ft 9 kts 328°
2026-05-05 05:07 43.43846 5.22487 49 ft 2 kts 311°
2026-05-05 05:08 43.43849 5.22483 49 ft 0 kts 311°